Dewpoint
63 59 56 52 42 45 47 48 50 47 50 46 48 54 54 54 54 54 65 68 70 71 73 75 77 77 76 77 77 77 76 76 76 76 75 76 76 76 76 76 75 75 74 73 73 72 71 71 70
49 45 49 46 38 35 41 46 47 47 48 48 47 56 55 55 56 58 65 69 69 69 72 74 77 76 75 76 77 76 76 77 76 76 75 75 76 76 76 75 75 75 73 72 71 71 70 69 68
58 49 43 35 36 34 35 45 44 44 46 47 48 58 58 59 60 61 68 68 68 69 72 74 77 77 75 76 77 77 77 77 76 76 76 75 75 75 75 75 75 74 73 72 72 72 71 70 70
38 43 42 32 30 30 34 43 45 45 48 53 54 59 64 65 64 63 67 68 70 71 74 75 76 76 76 76 77 77 77 77 76 76 76 75 75 75 75 75 74 74 74 72 71 72 72 72 71
31 34 33 30 28 28 30 37 47 46 49 53 58 60 61 65 67 63 64 68 70 71 74 74 76 76 76 75 76 76 76 76 76 76 75 75 75 75 75 75 75 75 74 73 72 72 72 71 70
28 30 27 25 24 30 32 36 46 46 51 52 58 58 61 66 65 63 60 70 69 70 72 73 75 75 75 75 75 76 75 75 75 75 75 75 75 75 75 75 75 74 74 74 73 72 72 71 72
22 24 23 21 20 22 32 31 47 52 50 55 56 58 60 60 64 65 64 65 68 69 70 71 73 73 75 75 75 75 75 75 74 74 74 74 74 74 74 74 74 74 74 74 73 72 72 73 73
15 18 17 17 18 21 35 39 50 51 52 59 60 56 57 60 64 65 63 63 66 66 68 69 72 72 72 73 75 75 75 75 74 74 74 74 74 74 74 74 74 75 75 74 73 73 73 74 73
13 9 11 14 17 27 34 41 53 57 56 59 58 59 59 61 61 60 57 58 63 66 68 66 66 69 69 72 72 74 74 74 75 74 75 74 73 72 73 74 74 75 75 74 74 74 74 74 74
9 9 9 12 17 20 32 30 44 50 55 58 59 58 60 61 61 60 60 60 60 62 67 69 69 68 69 72 71 71 71 71 71 71 71 73 71 70 71 73 74 74 75 75 74 74 74 73 71
9 7 8 10 15 23 26 28 28 41 49 59 57 56 61 61 63 62 63 63 62 65 65 67 67 70 68 69 70 70 71 69 68 71 70 70 71 70 71 70 72 72 74 72 72 72 71 67 67
7 8 6 11 13 14 27 29 28 38 45 59 60 62 61 60 60 63 64 64 63 66 66 68 63 60 66 66 68 70 69 66 66 66 70 72 73 70 70 70 70 70 70 70 68 69 70 69 67
9 8 9 11 12 12 28 27 27 48 51 55 53 54 55 55 57 59 61 63 63 63 65 68 66 62 68 72 71 70 68 65 66 67 64 65 71 71 70 68 68 69 70 69 69 69 69 69 68
13 12 14 14 13 16 18 25 24 55 54 52 55 57 61 62 62 62 62 61 63 64 64 65 69 70 70 65 65 65 63 64 64 64 64 68 65 69 70 70 70 71 71 71 70 69 70 67 66
15 14 14 13 12 20 22 22 33 54 54 55 56 58 59 59 59 60 62 62 62 67 67 67 68 67 66 64 64 64 63 64 63 63 63 66 64 65 67 71 70 71 70 69 70 69 70 69 68
16 15 12 12 12 14 19 22 32 53 52 52 54 54 54 56 57 58 59 60 61 62 63 63 63 67 63 64 65 65 63 63 63 62 63 67 65 67 67 69 69 70 69 68 68 68 67 66 63
19 12 11 11 12 13 18 31 50 52 51 50 51 52 52 52 54 54 55 57 57 58 59 59 60 60 66 64 66 64 62 63 67 65 65 69 70 70 69 69 69 70 68 68 67 67 66 65 65
16 14 17 13 14 16 34 45 48 52 50 49 49 50 50 51 50 51 52 52 54 57 56 57 57 56 58 59 65 66 64 66 66 67 66 66 67 67 68 68 67 67 67 66 66 64 65 65 64
16 17 17 18 19 27 44 45 48 50 49 49 48 48 48 48 48 50 49 51 53 54 55 55 54 56 57 55 55 58 62 60 61 63 59 59 58 58 65 66 65 65 65 65 65 64 62 61 62
13 12 13 18 21 20 44 45 47 49 48 48 47 47 46 46 45 44 47 48 51 53 54 55 55 55 55 52 53 55 55 57 53 56 54 52 54 55 54 59 62 62 63 63 63 63 63 62 61
10 11 12 14 20 23 34 44 47 48 45 44 44 44 44 44 44 44 45 46 49 50 52 54 54 53 53 51 50 50 50 49 48 49 48 50 52 51 53 53 53 55 57 55 59 60 61 61 61
18 23 21 19 17 13 22 18 46 45 44 44 43 41 40 40 42 42 45 45 46 48 50 52 52 50 50 51 49 49 49 47 48 48 48 47 48 48 49 48 50 50 51 51 55 55 60 59 58
20 21 20 21 20 21 19 20 44 46 45 43 42 40 41 41 41 42 42 43 44 47 48 49 50 49 49 49 49 48 46 47 45 45 44 43 43 46 45 45 45 47 47 48 49 51 53 58 57
19 20 20 21 18 16 17 19 42 45 46 46 41 40 40 41 42 42 42 42 42 43 45 46 47 48 47 47 46 45 45 44 43 42 41 41 42 43 43 43 45 44 45 46 48 48 50 52 54
22 21 20 21 19 19 22 32 40 44 46 46 43 42 42 42 41 41 39 40 41 43 44 44 46 45 45 45 45 43 43 42 41 41 42 42 41 41 41 43 44 44 45 47 47 48 49 50 51
16 22 22 16 19 20 27 37 41 48 50 46 43 43 42 40 40 40 40 39 41 43 43 43 43 44 43 43 42 42 42 42 42 43 43 43 42 43 43 45 45 46 47 47 48 50 49 48 50
17 15 20 20 20 19 34 39 43 44 42 43 42 41 41 40 39 40 42 40 40 41 43 43 43 42 42 41 41 41 42 43 43 43 43 43 44 45 45 46 47 48 48 49 50 51 50 49 50
18 17 17 21 18 19 29 35 37 39 40 41 42 42 41 41 40 40 40 41 40 40 42 41 41 41 40 40 41 42 43 43 44 44 44 45 45 46 47 46 47 48 48 47 50 50 51 52 52
26 24 23 26 27 26 25 29 39 39 41 41 42 42 40 40 37 37 39 39 39 39 39 40 40 39 41 43 43 43 44 45 44 44 45 45 46 47 47 48 48 47 48 48 50 50 49 51 52
25 24 21 27 27 30 30 33 41 42 41 41 40 39 38 36 35 37 39 39 39 39 38 39 38 40 43 43 43 43 44 46 45 45 46 48 47 48 49 48 47 47 48 49 48 48 50 51 50
Lifted_Index
6 5 4 3 1 -0 -0 -0 0 0 -1 -1 -2 -2 -3 -2 -1 -1 -2 -2 -1 -1 -2 -3 -3 -3 -3 -3 -3 -3 -3 -3 -3 -3 -3 -2 -2 -2 -2 -2 -2 -1 -1 -1 -1 -0 0 1 1
6 5 4 3 2 0 -0 -1 -0 -0 -1 -1 -2 -3 -3 -3 -2 -2 -2 -2 -1 -1 -1 -3 -3 -3 -3 -3 -3 -3 -3 -3 -3 -3 -3 -3 -3 -3 -2 -2 -2 -2 -1 -1 -1 -0 0 0 1
5 4 4 3 2 0 -1 -1 -1 -1 -1 -1 -3 -4 -4 -3 -3 -3 -4 -3 -2 -2 -2 -3 -4 -4 -4 -4 -4 -4 -4 -4 -4 -3 -3 -3 -3 -3 -3 -2 -2 -2 -2 -1 -1 -1 -0 0 0
5 4 3 3 2 0 -1 -1 -2 -2 -2 -3 -4 -4 -3 -3 -3 -4 -5 -5 -4 -3 -3 -4 -4 -4 -4 -4 -4 -4 -4 -4 -4 -4 -3 -3 -3 -3 -3 -3 -3 -2 -2 -2 -1 -1 -1 -0 0
4 4 3 2 2 0 -0 -1 -2 -3 -3 -3 -3 -3 -2 -2 -2 -3 -5 -5 -5 -4 -4 -4 -5 -5 -5 -5 -5 -5 -4 -4 -4 -4 -3 -3 -3 -3 -3 -3 -3 -3 -3 -2 -2 -1 -1 -0 0
5 4 4 3 2 1 -0 -1 -2 -3 -3 -3 -3 -2 -1 -1 -1 -3 -4 -5 -5 -4 -4 -4 -4 -5 -5 -5 -5 -5 -5 -4 -4 -4 -3 -3 -3 -3 -3 -3 -3 -3 -3 -3 -2 -1 -1 -1 -1
6 5 4 3 2 0 -0 -1 -2 -3 -3 -3 -2 -1 -0 -0 -1 -2 -4 -4 -4 -4 -4 -4 -4 -4 -4 -5 -5 -5 -5 -4 -4 -4 -3 -3 -3 -3 -3 -3 -3 -3 -3 -3 -2 -2 -2 -2 -2
7 6 5 3 2 0 -1 -2 -3 -3 -3 -3 -3 -1 0 -0 -1 -2 -3 -3 -4 -4 -3 -3 -3 -4 -4 -4 -4 -5 -5 -4 -4 -4 -3 -3 -3 -2 -3 -3 -3 -3 -3 -3 -3 -2 -2 -2 -2
7 6 4 3 2 0 -1 -2 -3 -3 -3 -3 -2 -1 -0 -0 -1 -2 -2 -2 -3 -4 -4 -4 -4 -4 -4 -4 -4 -4 -4 -4 -4 -4 -4 -3 -3 -3 -3 -3 -3 -4 -4 -3 -3 -3 -3 -3 -3
6 6 4 3 2 1 -0 -1 -2 -3 -3 -3 -2 -1 -0 -1 -1 -1 -1 -2 -2 -3 -3 -3 -3 -4 -4 -4 -4 -4 -4 -3 -3 -4 -4 -4 -3 -3 -3 -3 -4 -4 -4 -3 -3 -3 -3 -2 -2
6 5 4 3 2 1 0 0 -0 -2 -3 -3 -2 -1 -1 -1 -2 -2 -2 -2 -2 -3 -3 -2 -2 -2 -3 -4 -4 -4 -3 -3 -3 -3 -4 -4 -4 -4 -4 -4 -4 -4 -4 -3 -3 -3 -2 -2 -2
5 5 4 3 2 1 1 1 0 -1 -3 -3 -3 -2 -2 -2 -2 -2 -3 -3 -2 -2 -2 -2 -1 -1 -2 -4 -4 -4 -3 -2 -2 -2 -3 -4 -5 -5 -5 -4 -4 -4 -4 -3 -3 -3 -2 -2 -2
5 4 4 3 2 2 1 1 0 -2 -3 -3 -3 -2 -2 -2 -2 -2 -3 -3 -2 -2 -3 -3 -2 -2 -3 -4 -4 -4 -3 -2 -2 -1 -1 -1 -3 -4 -4 -4 -4 -4 -4 -4 -3 -3 -3 -3 -3
4 4 4 3 3 2 1 1 -1 -3 -3 -3 -3 -3 -3 -3 -2 -2 -2 -2 -3 -3 -3 -4 -4 -4 -4 -4 -4 -3 -3 -2 -0 1 1 1 1 -1 -2 -3 -4 -4 -4 -4 -4 -4 -4 -4 -4
4 4 3 3 3 2 1 0 -1 -3 -3 -3 -3 -3 -3 -3 -3 -3 -3 -4 -4 -4 -4 -4 -5 -5 -5 -4 -3 -2 -1 -0 1 1 1 2 2 1 -1 -3 -4 -5 -5 -5 -5 -5 -5 -5 -4
3 3 2 2 2 2 1 -0 -2 -3 -3 -3 -3 -3 -2 -3 -3 -4 -4 -5 -5 -5 -4 -5 -6 -6 -5 -5 -3 -2 -0 0 -0 -0 0 -0 0 0 -1 -3 -4 -5 -5 -5 -6 -6 -6 -5 -4
2 2 1 1 1 1 0 -1 -2 -3 -3 -3 -3 -2 -2 -2 -2 -3 -4 -5 -6 -5 -5 -5 -6 -6 -5 -4 -3 -2 -1 -1 -2 -3 -3 -2 -2 -2 -3 -4 -5 -5 -6 -5 -5 -5 -5 -4 -4
2 1 0 0 0 0 -1 -2 -2 -3 -3 -3 -2 -1 -1 -0 -0 -1 -2 -3 -4 -4 -4 -4 -4 -4 -4 -4 -4 -3 -2 -2 -3 -4 -3 -2 -2 -2 -3 -4 -4 -4 -4 -4 -4 -3 -3 -3 -3
1 1 -0 -0 0 -1 -2 -3 -3 -3 -3 -2 -1 -1 -0 1 1 -0 -1 -1 -2 -2 -2 -2 -1 -1 -2 -2 -3 -3 -2 -2 -2 -2 -1 -0 1 1 -1 -2 -2 -2 -3 -3 -3 -3 -3 -2 -2
1 1 0 0 0 -1 -2 -3 -3 -3 -3 -2 -1 -0 0 1 2 1 0 1 1 1 1 1 2 2 2 1 1 0 0 1 2 2 3 4 4 4 3 2 1 0 -1 -2 -2 -2 -2 -2 -2
2 1 1 1 0 -0 -1 -2 -3 -3 -2 -1 -0 0 1 2 2 2 1 2 2 2 3 4 4 5 5 5 4 4 4 4 6 6 7 7 7 6 5 5 4 3 2 0 -1 -1 -2 -2 -2
2 2 2 2 1 0 -0 -1 -2 -2 -2 -1 -0 1 2 2 3 3 3 3 3 3 3 5 5 6 6 6 6 6 6 7 8 9 9 9 9 8 8 7 6 6 5 3 2 1 0 0 0
3 3 2 2 2 1 0 -1 -2 -2 -2 -1 -0 1 2 3 3 3 4 4 4 4 4 5 6 7 7 7 8 7 7 8 9 10 10 10 10 10 10 10 9 9 8 7 6 5 4 3 3
3 3 2 2 1 1 0 -0 -2 -2 -2 -1 -0 1 2 3 3 3 4 5 5 5 5 6 6 7 8 8 9 9 9 9 10 10 10 10 11 11 12 12 12 11 10 10 9 8 7 7 6
2 2 2 1 1 0 0 -0 -1 -2 -1 -1 -0 1 1 2 3 3 4 5 5 6 6 6 7 8 9 9 9 9 10 10 10 11 11 12 12 12 13 13 13 12 11 11 10 10 9 9 8
2 2 2 1 1 0 -0 -1 -1 -1 -1 -1 -0 0 1 2 3 4 4 5 6 6 6 7 8 9 9 10 10 10 11 11 12 12 13 13 13 13 13 13 12 12 11 11 10 9 9 8 8
2 2 2 2 1 0 -0 -0 -1 -1 -1 -0 -0 0 1 2 3 4 5 6 6 6 7 7 9 10 10 11 11 12 12 13 13 13 14 14 13 13 13 12 12 12 11 10 9 8 8 8 7
2 2 2 2 1 0 -0 -0 -0 -0 -0 -0 0 1 2 3 4 5 6 6 6 7 7 9 10 11 12 12 13 13 13 14 14 14 14 13 13 13 12 12 12 11 11 10 9 8 8 7 7
1 1 2 1 1 0 -0 -0 -0 -0 0 1 1 2 3 3 4 5 6 6 6 7 8 10 11 12 13 13 14 14 14 14 14 14 13 13 12 12 12 12 12 11 10 10 9 9 8 7 7
1 1 1 2 1 0 -0 -1 -1 -1 -0 1 2 2 3 3 4 5 6 6 6 7 8 10 11 12 13 14 14 14 13 13 13 13 13 13 12 12 12 12 12 11 10 10 9 9 8 7 7